Tracking 22079 objects as of 5-Dec-2020
HD Live streaming from Space Station
objects crossing your sky now

GALS 2

Track GALS 2 now!
GALS 2 is classified as:


NORAD ID: 23717
Int'l Code: 1995-063A
Perigee: 35,863.3 km
Apogee: 35,942.7 km
Inclination: 13.8 °
Period: 1,441.7 minutes
Semi major axis: 42273 km
RCS: 8.9125 m2 (large)
Launch date: November 17, 1995
Source: Commonwealth of Independent States (former USSR) (CIS)
Launch site: TYURATAM MISSILE AND SPACE COMPLEX (TTMTR)
aabbcc
Your satellite tracking list
Your tracking list is empty




NASA's NSSDC Master Catalog

Two Line Element Set (TLE):
1 23717U 95063A   20340.02531030 -.00000257  00000-0  00000+0 0  9990
2 23717  13.8044  17.8324 0009395 309.6434  51.3494  0.99883321 91483
Source of the keplerian elements: AFSPC